User: anonymous   Login
Location: Moscow
(38.8570°N, 84.2291°W)
Time: 18:47:18
(UTC+00:00)
Language:

CUTE 1.7 + AOD 2 - Orbit

View from above orbital plane
View from above orbital plane
View from above satellite
View from above satellite

Ground track
Ground track

The orbit is defined by the following mean orbital elements,

1 32785U          26066.52436198 +.00000000 +00000-0 +61192-3 0 00008
2 32785  97.8210  45.9571 0009948  26.9118 333.2624 15.08336798    05
Epoch (UTC): 07 March 2026 12:35:04
Eccentricity: 0.0009948
inclination: 97.8210°
perigee height: 534 km
apogee height: 548 km
right ascension of ascending node: 45.9571°
argument of perigee: 26.9118°
revolutions per day: 15.08336798
mean anomaly at epoch: 333.2624°

The dashed part of the orbit path shows where the satellite is in the earth's shadow,  

DLR